FW5156 Weather Reports


Display with metric or nautical units.
time (UTC)temp
F
wind
direction
speed
MPH
gust
MPH
rain 1hr
in
rain 24hr
in
rain mn
in
humidity
%
barometer
mb
20260508193517 65 248 1.0 7.0 0.00 0.00 0.00 56 1010.7
20260508192537 65 225 2.0 8.0 0.00 0.00 0.00 55 1010.8
20260508191517 65 225 2.0 10.0 0.00 0.00 0.00 56 1010.7
20260508190517 65 225 2.0 9.0 0.00 0.00 0.00 54 1011.0
20260508185537 65 248 2.0 7.0 0.00 0.00 0.00 56 1011.1
20260508184517 65 225 3.0 13.0 0.00 0.00 0.00 55 1011.3
20260508183517 65 225 3.0 9.0 0.00 0.00 0.00 58 1011.5
20260508182517 65 270 1.0 5.0 0.00 0.00 0.00 57 1011.6
20260508181517 65 248 2.0 7.0 0.00 0.00 0.00 56 1011.5
20260508180517 65 203 3.0 10.0 0.00 0.00 0.00 56 1011.7
20260508175537 66 225 3.0 9.0 0.00 0.00 0.00 55 1011.9
20260508174517 65 225 3.0 8.0 0.00 0.00 0.00 58 1012.2
20260508173537 64 270 3.0 12.0 0.00 0.00 0.00 56 1012.3
20260508172517 64 225 4.0 12.0 0.00 0.00 0.00 55 1012.3
20260508171517 64 248 2.0 9.0 0.00 0.00 0.00 57 1012.4
20260508170517 64 248 4.0 11.0 0.00 0.00 0.00 55 1012.6
20260508165517 65 248 6.0 14.0 0.00 0.00 0.00 53 1012.6
20260508164517 64 315 2.0 9.0 0.00 0.00 0.00 56 1012.9
20260508163537 64 270 3.0 10.0 0.00 0.00 0.00 59 1013.2
20260508162517 64 248 3.0 9.0 0.00 0.00 0.00 57 1013.4
20260508161517 64 270 1.0 6.0 0.00 0.00 0.00 57 1013.4
20260508160517 63 225 3.0 11.0 0.00 0.00 0.00 60 1013.4
20260508155517 61 225 2.0 9.0 0.00 0.00 0.00 61 1013.6
20260508154517 61 225 3.0 9.0 0.00 0.00 0.00 61 1013.8
20260508153517 61 225 2.0 8.0 0.00 0.00 0.00 60 1013.8
20260508152517 62 225 4.0 11.0 0.00 0.00 0.00 60 1013.7
20260508151517 63 225 4.0 11.0 0.00 0.00 0.00 57 1013.7
20260508150517 62 225 2.0 11.0 0.00 0.00 0.00 61 1013.7
20260508145517 62 270 2.0 7.0 0.00 0.00 0.00 60 1013.7
20260508144517 62 203 4.0 10.0 0.00 0.00 0.00 58 1013.9
20260508143517 62 225 3.0 7.0 0.00 0.00 0.00 60 1014.0
20260508142557 61 225 3.0 12.0 0.00 0.00 0.00 60 1014.1
20260508141517 60 248 2.0 7.0 0.00 0.00 0.00 62 1014.3
20260508140517 59 225 4.0 12.0 0.00 0.00 0.00 60 1014.1
20260508135517 58 248 2.0 7.0 0.00 0.00 0.00 61 1014.1
20260508134537 58 203 2.0 7.0 0.00 0.00 0.00 63 1014.1
20260508133537 56 225 3.0 11.0 0.00 0.00 0.00 64 1014.2
20260508132517 56 270 4.0 10.0 0.00 0.00 0.00 62 1014.5
20260508131517 55 203 3.0 7.0 0.00 0.00 0.00 64 1014.4
20260508130517 54 203 4.0 9.0 0.00 0.00 0.00 65 1014.6
20260508125517 53 180 5.0 11.0 0.00 0.00 0.00 65 1014.5
20260508124517 52 248 3.0 10.0 0.00 0.00 0.00 67 1014.4
20260508123517 51 248 2.0 8.0 0.00 0.00 0.00 68 1014.3
20260508122517 50 248 2.0 10.0 0.00 0.00 0.00 69 1014.3
20260508121537 50 225 2.0 6.0 0.00 0.00 0.00 70 1014.4
20260508120517 49 225 1.0 5.0 0.00 0.00 0.00 70 1014.3
20260508115517 48 248 2.0 5.0 0.00 0.00 0.00 71 1014.3
20260508114517 48 225 1.0 3.0 0.00 0.00 0.00 71 1014.1
20260508113517 48 248 1.0 6.0 0.00 0.00 0.00 71 1013.9
20260508112517 47 0.0 3.0 0.00 0.00 0.00 73 1013.9
20260508111517 47 225 1.0 5.0 0.00 0.00 0.00 72 1014.0
20260508110517 47 225 1.0 4.0 0.00 0.00 0.00 73 1014.0
20260508105517 47 0.0 2.0 0.00 0.00 0.00 73 1013.8
20260508104517 46 0.0 3.0 0.00 0.00 0.00 73 1013.9
20260508103517 46 0.0 3.0 0.00 0.00 0.00 73 1013.9
20260508102517 46 0.0 2.0 0.00 0.00 0.00 74 1013.9
20260508101517 47 0.0 0.0 0.00 0.00 0.00 75 1013.9
20260508100517 47 0.0 0.0 0.00 0.00 0.00 74 1013.9
20260508095517 47 0.0 2.0 0.00 0.00 0.00 73 1013.9
20260508094517 47 0.0 3.0 0.00 0.00 0.00 72 1014.0
20260508093517 47 0.0 3.0 0.00 0.00 0.00 71 1014.0
20260508092517 48 0.0 4.0 0.00 0.00 0.00 72 1014.0
20260508091517 48 0.0 2.0 0.00 0.00 0.00 70 1014.1
20260508090517 48 0.0 2.0 0.00 0.00 0.00 71 1014.1
20260508085517 49 0.0 2.0 0.00 0.00 0.00 70 1014.2
20260508084517 49 270 1.0 4.0 0.00 0.00 0.00 69 1014.2
20260508083517 49 0.0 2.0 0.00 0.00 0.00 70 1014.2
20260508082517 49 0.0 2.0 0.00 0.00 0.00 69 1014.2
20260508081517 49 0.0 2.0 0.00 0.00 0.00 67 1014.3
20260508080517 50 270 1.0 3.0 0.00 0.00 0.00 66 1014.2
20260508075517 50 0.0 1.0 0.00 0.00 0.00 66 1014.3
20260508074517 50 0.0 3.0 0.00 0.00 0.00 65 1014.3
20260508073517 51 0.0 4.0 0.00 0.00 0.00 65 1014.3
20260508072537 51 248 1.0 5.0 0.00 0.00 0.00 64 1014.4
20260508071517 51 203 1.0 6.0 0.00 0.00 0.00 64 1014.5
20260508070517 51 203 2.0 8.0 0.00 0.00 0.00 64 1014.5
20260508065517 51 225 1.0 4.0 0.00 0.00 0.00 63 1014.7
20260508064517 51 225 1.0 4.0 0.00 0.00 0.00 62 1014.8
20260508063517 51 203 1.0 6.0 0.00 0.00 0.00 62 1014.9
20260508062517 51 225 1.0 7.0 0.00 0.00 0.00 61 1014.9
20260508061517 51 225 2.0 7.0 0.00 0.00 0.00 62 1015.0
20260508060517 51 180 1.0 3.0 0.00 0.00 0.00 63 1015.0
20260508055517 51 203 2.0 8.0 0.00 0.00 0.00 62 1015.0
20260508054537 51 203 2.0 12.0 0.00 0.00 0.00 63 1014.9
20260508053517 50 203 1.0 4.0 0.00 0.00 0.00 64 1014.9
20260508052517 50 203 2.0 7.0 0.00 0.00 0.00 66 1014.8
20260508051537 50 0.0 2.0 0.00 0.00 0.00 68 1014.7
20260508050537 50 225 1.0 6.0 0.00 0.00 0.00 64 1014.9
20260508045517 50 0.0 3.0 0.00 0.00 0.00 64 1015.0
20260508044517 50 248 1.0 5.0 0.00 0.00 0.00 65 1014.9
20260508043517 51 225 1.0 5.0 0.00 0.00 0.00 63 1014.9
20260508042517 51 0.0 3.0 0.00 0.00 0.00 65 1014.9
20260508041517 51 225 1.0 6.0 0.00 0.00 0.00 63 1015.0
20260508040517 51 270 1.0 6.0 0.00 0.00 0.00 65 1014.9
20260508035517 51 225 1.0 5.0 0.00 0.00 0.00 65 1014.9
20260508034517 51 225 1.0 4.0 0.00 0.00 0.00 67 1015.0
20260508033517 51 225 1.0 4.0 0.00 0.00 0.00 67 1014.8
20260508032517 51 0.0 4.0 0.00 0.00 0.00 67 1014.8
20260508031517 51 0.0 2.0 0.00 0.00 0.00 66 1014.9
20260508030517 51 0.0 2.0 0.00 0.00 0.00 67 1014.9
20260508025517 51 0.0 5.0 0.00 0.00 0.00 66 1014.9
20260508024517 51 0.0 3.0 0.00 0.00 0.00 66 1015.0
20260508023517 50 0.0 0.0 0.00 0.00 0.00 67 1014.7
20260508022517 50 0.0 0.0 0.00 0.00 0.00 65 1014.6
20260508021517 50 0.0 0.0 0.00 0.00 0.00 67 1014.4
20260508021017 50 0.0 0.0 0.00 0.00 0.00 67 1014.4
20260508020017 50 0.0 0.0 0.00 0.00 0.00 69 1014.4
20260508015017 50 0.0 0.0 0.00 0.00 0.00 70 1014.2
20260508014017 51 0.0 0.0 0.00 0.00 0.00 70 1014.0
20260508013017 51 0.0 0.0 0.00 0.00 0.00 69 1014.2
20260508012017 52 0.0 0.0 0.00 0.00 0.00 67 1014.1
20260508011017 53 0.0 0.0 0.00 0.00 0.00 65 1014.2
20260508010017 54 338 1.0 5.0 0.00 0.00 0.00 61 1014.2
20260508005017 55 0.0 0.0 0.00 0.00 0.00 60 1014.0
20260508004037 55 0.0 0.0 0.00 0.00 0.00 60 1014.3
20260508003017 56 0.0 0.0 0.00 0.00 0.00 57 1014.2
20260508002017 56 0.0 1.0 0.00 0.00 0.00 50 1014.0
20260508001017 57 0.0 0.0 0.00 0.00 0.00 52 1014.0
20260508000017 57 0.0 0.0 0.00 0.00 0.00 47 1014.0
20260507235017 57 0.0 0.0 0.00 0.00 0.00 46 1013.9
20260507234017 58 0.0 2.0 0.00 0.00 0.00 45 1013.9
20260507233017 58 270 1.0 8.0 0.00 0.00 0.00 45 1014.0
20260507232017 58 0.0 3.0 0.00 0.00 0.00 45 1014.1
20260507231017 58 248 2.0 7.0 0.00 0.00 0.00 42 1014.0
20260507230017 59 270 2.0 8.0 0.00 0.00 0.00 42 1014.0
20260507225017 60 0.0 3.0 0.00 0.00 0.00 43 1014.1
20260507224017 61 203 1.0 7.0 0.00 0.00 0.00 40 1014.1
20260507223017 62 225 1.0 9.0 0.00 0.00 0.00 41 1014.0
20260507222017 61 203 3.0 11.0 0.00 0.00 0.00 41 1014.1
20260507221017 61 315 3.0 9.0 0.00 0.00 0.00 39 1014.2
20260507220017 62 248 1.0 4.0 0.00 0.00 0.00 38 1014.2
20260507215017 62 225 2.0 10.0 0.00 0.00 0.00 38 1014.1
20260507214017 62 225 2.0 7.0 0.00 0.00 0.00 36 1014.0
20260507213017 62 248 1.0 7.0 0.00 0.00 0.00 39 1013.9
20260507212017 62 225 3.0 10.0 0.00 0.00 0.00 37 1013.9
20260507211017 63 270 3.0 10.0 0.00 0.00 0.00 36 1014.2
20260507210017 62 225 1.0 6.0 0.00 0.00 0.00 39 1014.2
20260507205017 62 315 2.0 7.0 0.00 0.00 0.00 39 1014.3
20260507204017 62 45 2.0 7.0 0.00 0.00 0.00 40 1014.4
20260507203017 62 293 3.0 9.0 0.00 0.00 0.00 36 1014.5
20260507202017 62 293 1.0 5.0 0.00 0.00 0.00 39 1014.5
20260507201037 62 248 1.0 5.0 0.00 0.00 0.00 41 1014.7
20260507200017 61 45 1.0 5.0 0.00 0.00 0.00 39 1014.8
20260507195017 61 225 3.0 9.0 0.00 0.00 0.00 40 1014.9
20260507194017 61 315 1.0 7.0 0.00 0.00 0.00 39 1015.0